Regional Weather Roundup
Issued by NWS State College, PA

Home | Current Version | Previous Version | Text Only | Print | Product List | Glossary On
Versions: 1 2 3 4 5 6 7 8 9 10 11 12 13 14 15 16 17 18 19 20 21 22 23 24 25 26 27 28 29 30 31 32 33 34 35 36 37 38 39 40 41 42 43 44 45 46 47 48 49 50
000
ASUS41 KCTP 292010
RWRCTP

REGIONAL WEATHER ROUNDUP
NATIONAL WEATHER SERVICE STATE COLLEGE PA
400 PM EDT SUN MAR 29 2015

Note: "fair" indicates few or no clouds below 12,000 feet with no
significant weather and/or obstructions to visibility.

* = STATION THAT DOES NOT REPORT PRECIPITATION /E.G. RAIN...SNOW...ETC/
    THUNDER OR FOG.

PAZ002>004-007>009-013>016-020>023-029>032-292100-
WESTERN PENNSYLVANIA

CITY           SKY/WX    TMP DP  RH WIND       PRES   REMARKS
ERIE           SUNNY     45  11  25 S17G28    30.07F
MEADVILLE      SUNNY     41  13  31 S14G25    30.08F
FRANKLIN*      SUNNY     41  16  36 S12G21    30.13F
NEW CASTLE     FAIR      43  12  28 S7G16     30.13F
BEAVER COUNTY  SUNNY     43  12  28 S12G21    30.15F
BUTLER*        SUNNY     43  12  28 S10G17    30.17F
PITTSBURGH INT PTSUNNY   43   7  22 S9        30.16F
PITTSBURGH     SUNNY     43   6  21 S13       30.17F
INDIANA*       SUNNY     41  12  30 W9        30.21F
LATROBE        MOSUNNY   41   7  24 SW12      30.22F
WASHINGTON CO* SUNNY     45  10  24 SW9       30.19F
$$

PAZ004>006-010>012-017>019-024>028-033>037-041-042-045-046-049>053-292100-
CENTRAL PENNSYLVANIA

CITY           SKY/WX    TMP DP  RH WIND       PRES   REMARKS
BRADFORD       SUNNY     38   8  29 SW12G17   30.09F
DUBOIS         SUNNY     41   8  25 W14       30.13F
CLEARFIELD     SUNNY     41   8  25 SW14      30.16F
JOHNSTOWN      SUNNY     39   9  29 SW12G18   30.13F
ALTOONA        SUNNY     42   5  21 W10       30.18F
STATE COLLEGE  SUNNY     43   5  21 W12       30.17F
WILLIAMSPORT   SUNNY     45   5  19 W7        30.17F
SELINSGROVE    SUNNY     45   8  22 VRB3      30.20F
FT INDIANTOWN  SUNNY     44   7  22 VRB7      30.20F
CAPITAL CITY   SUNNY     43   3  19 VRB3      30.22F
HARRISBURG     MOSUNNY   45   4  18 W6        30.22F
YORK           SUNNY     43   8  23 W10       30.23F
$$

PAZ038>040-043-044-047-048-054-055-060>062-067>071-292100-
EASTERN PENNSYLVANIA

CITY           SKY/WX    TMP DP  RH WIND       PRES   REMARKS
SCRANTON       SUNNY     42   4  20 SW5       30.14F
MOUNT POCONO   SUNNY     36   3  25 VRB3      30.10F
ALLENTOWN      LGT RAIN  44   8  23 W8        30.19F
QUAKERTOWN*    CLEAR     43   9  24 W6        30.20F
READING        SUNNY     43   6  21 W10       30.21F
LANCASTER      SUNNY     41   8  25 MISG      30.22F
COATESVILLE    CLEAR     39  10  30 NW12      30.22F
POTTSTOWN      SUNNY     42   9  25 W9        30.23F
BLUE BELL      SUNNY     43  14  31 W7        30.21F
DOYLESTOWN     SUNNY     42   7  23 NW9       30.20F
WILLOW GROVE   NOT AVBL
NORTH PHILA    SUNNY     45   6  20 W9        30.24F
PHILADELPHIA   SUNNY     44   5  20 NW9       30.24F
$$



USA.gov is the U.S. government's official web portal to all federal, state and local government web resources and services.